TimeAST,TemperatureF,Dew PointF,Humidity,Sea Level PressureIn,VisibilityMPH,Wind Direction,Wind SpeedMPH,Gust SpeedMPH,PrecipitationIn,Events,Conditions,WindDirDegrees,DateUTC
2:00 AM,82.4,77.0,84,29.98,-9999.0,East,15.0,-,N/A,,Unknown,80,2013-07-26 06:00:00
3:00 AM,82.4,77.0,84,29.95,-9999.0,East,16.1,-,N/A,,Unknown,80,2013-07-26 07:00:00
4:00 AM,82.4,75.2,79,29.95,6.2,East,17.3,-,N/A,,Partly Cloudy,80,2013-07-26 08:00:00
5:00 AM,82.4,75.2,79,29.95,6.2,East,17.3,-,N/A,,Partly Cloudy,80,2013-07-26 09:00:00
6:00 AM,82.4,75.2,79,29.95,-9999.0,East,15.0,-,N/A,,Unknown,80,2013-07-26 10:00:00
7:00 AM,82.4,75.2,79,29.98,6.2,East,16.1,-,N/A,,Scattered Clouds,90,2013-07-26 11:00:00
8:00 AM,84.2,75.2,74,29.98,6.2,East,19.6,-,N/A,,Scattered Clouds,90,2013-07-26 12:00:00
9:00 AM,84.2,77.0,79,29.98,6.2,East,20.7,-,N/A,,Scattered Clouds,90,2013-07-26 13:00:00
10:00 AM,86.0,77.0,74,30.01,6.2,East,23.0,-,N/A,,Mostly Cloudy,90,2013-07-26 14:00:00
11:00 AM,87.8,77.0,70,30.01,6.2,East,21.9,-,N/A,,Mostly Cloudy,90,2013-07-26 15:00:00
12:00 PM,87.8,77.0,70,30.01,6.2,East,21.9,-,N/A,,Scattered Clouds,90,2013-07-26 16:00:00
12:55 PM,87.8,77.0,70,29.95,-9999.0,East,21.9,-,N/A,,Unknown,90,2013-07-26 16:55:00
2:00 PM,88,75,58,29.95,16,East,21.9,,,,Scattered Clouds,90,2013-07-26 18:00:00
2:00 PM,87.8,75.2,66,29.95,6.2,East,21.9,-,N/A,,Partly Cloudy,90,2013-07-26 18:00:00
3:00 PM,87.8,75.2,66,29.92,6.2,East,23.0,-,N/A,,Partly Cloudy,80,2013-07-26 19:00:00
4:00 PM,87.8,75.2,66,29.89,6.2,East,25.3,-,N/A,,Partly Cloudy,80,2013-07-26 20:00:00
5:00 PM,87.8,77.0,70,29.89,6.2,ENE,24.2,-,N/A,,Partly Cloudy,70,2013-07-26 21:00:00
6:00 PM,86.0,75.2,70,29.89,-9999.0,ENE,23.0,-,N/A,,Unknown,70,2013-07-26 22:00:00
7:00 PM,84.2,77.0,79,29.89,-9999.0,ENE,19.6,-,N/A,,Unknown,60,2013-07-26 23:00:00
8:00 PM,83,76,73,29.92,16,East,18.4,,,,Scattered Clouds,80,2013-07-27 00:00:00
8:00 PM,82.4,75.2,79,29.92,6.2,East,18.4,-,N/A,,Partly Cloudy,80,2013-07-27 00:00:00
11:55 PM,82.4,75.2,79,29.95,-9999.0,East,15.0,-,N/A,,Unknown,90,2013-07-27 03:55:00